Weather History for KCNM - February, 2013

Change the Weather History Date:

Saturday, February 2, 2013

  Actual Average Record
Temperature  
Mean Temperature 50 °F -  
Max Temperature 64 °F - - ()
Min Temperature 37 °F - - ()
Degree Days  
Heating Degree Days 14    
Moisture  
Dew Point 14 °F    
Average Humidity 26    
Maximum Humidity 37    
Minimum Humidity 14    
Precipitation  
Precipitation 0.00 in - - ()
Sea Level Pressure  
Sea Level Pressure 30.23 in    
Wind  
Wind Speed 9 mph (WNW)    
Max Wind Speed 15 mph    
Max Gust Speed -    
Visibility 10 miles    
Events      
T = Trace of Precipitation, MM = Missing Value Source: NWS Daily Summary

Daily Weather History Graph

Daily Weather History Graph

Search for Another Location

Airport or City:

Trip Planner

Search our weather history database for the weather conditions in past years. The results will help you decide how hot, cold, wet, or windy it might be!

Date:

Astronomy

Feb. 02, 2013 Rise Set
Actual Time 6:50 AM MST 5:31 PM MST
Civil Twilight 6:24 AM MST 5:57 PM MST
Nautical Twilight 5:55 AM MST 6:26 PM MST
Astronomical Twilight 5:26 AM MST 6:55 PM MST
Moon No Moon Rise 10:29 AM MST (2/2)
Length of Visible Light 11h 32m
Length of Day
10h 41m
Waning Gibbous, 59% of the Moon is Illuminated
Feb 2
Waning Gibbous
Feb 3
Last Quarter
Feb 10
New
Feb 17
First Quarter
Feb 25
Full

Hourly Weather History & Observations

Time (MST) Temp. Windchill Dew Point Humidity Pressure Visibility Wind Dir Wind Speed Gust Speed Precip Events Conditions
12:53 AM 37.9 °F 30.0 °F 12.9 °F 36% 30.10 in 10.0 mi NNE 12.7 mph - N/A   Clear
1:53 AM 44.1 °F 37.7 °F 10.0 °F 25% 30.10 in 10.0 mi NNW 12.7 mph - N/A   Clear
2:53 AM 41.0 °F 34.7 °F 9.0 °F 27% 30.11 in 10.0 mi WNW 10.4 mph - N/A   Clear
3:53 AM 42.1 °F 35.7 °F 10.0 °F 27% 30.14 in 10.0 mi NNW 11.5 mph - N/A   Clear
4:53 AM 44.6 °F 39.2 °F 10.4 °F 25% 30.24 in 10.0 mi NNW 10.4 mph - N/A   Clear
5:53 AM 42.1 °F 37.1 °F 12.9 °F 31% 30.21 in 10.0 mi WNW 8.1 mph - N/A   Clear
6:53 AM 39.9 °F 33.9 °F 12.9 °F 33% 30.25 in 10.0 mi WNW 9.2 mph - N/A   Clear
7:53 AM 46.9 °F - 14.0 °F 27% 30.26 in 10.0 mi NW 11.5 mph - N/A   Clear
8:53 AM 50.0 °F - 14.0 °F 24% 30.28 in 10.0 mi NW 15.0 mph - N/A   Clear
9:53 AM 53.1 °F - 15.1 °F 22% 30.31 in 10.0 mi NNW 13.8 mph - N/A   Clear
10:53 AM 57.0 °F - 16.0 °F 20% 30.30 in 10.0 mi NNW 8.1 mph - N/A   Clear
11:53 AM 59.0 °F - 15.1 °F 18% 30.30 in 10.0 mi Calm Calm - N/A   Clear
12:53 PM 61.0 °F - 15.1 °F 17% 30.26 in 10.0 mi Variable 3.5 mph - N/A   Clear
1:53 PM 64.0 °F - 14.0 °F 14% 30.23 in 10.0 mi Variable 3.5 mph - N/A   Clear
2:53 PM 64.0 °F - 14.0 °F 14% 30.22 in 10.0 mi Calm Calm - N/A   Clear
3:53 PM 64.0 °F - 14.0 °F 14% 30.20 in 10.0 mi Calm Calm - N/A   Clear
4:53 PM 62.1 °F - 14.0 °F 15% 30.21 in 10.0 mi Calm Calm - N/A   Clear
5:53 PM 53.1 °F - 16.0 °F 23% 30.24 in 10.0 mi Calm Calm - N/A   Clear
6:53 PM 45.0 °F 41.8 °F 16.0 °F 31% 30.27 in 10.0 mi WSW 5.8 mph - N/A   Clear
7:53 PM 42.1 °F 38.4 °F 16.0 °F 35% 30.28 in 10.0 mi SSW 5.8 mph - N/A   Clear
8:53 PM 42.1 °F 37.1 °F 17.1 °F 37% 30.29 in 10.0 mi South 8.1 mph - N/A   Clear
9:53 PM 43.0 °F 38.2 °F 17.1 °F 35% 30.28 in 10.0 mi South 8.1 mph - N/A   Clear
10:53 PM 44.1 °F 39.5 °F 19.0 °F 37% 30.27 in 10.0 mi South 8.1 mph - N/A   Clear
11:53 PM 46.9 °F - 19.9 °F 34% 30.25 in 10.0 mi South 9.2 mph - N/A   Clear